weather.gov     
National Weather Service

Regional Weather Roundup
NWS Homepage
This page is being discontinued on March 12, 2014.
The same data is available at this site. Please update your bookmarks.
Thank you, and we apologize for the inconvenience.
Please send an email to SR-SRH.Webmaster@noaa.gov with any concerns.


Current Version
Previous Version:    01  02  03  04  05  06  07  08  09  10  11  12  13  14  15  16  17  18  19  20  21  22  23  24  25  26  27  28  29  30  
   31  32  33  34  35  36  37  38  39  40  41  42  43  44  45  46  47  48  49  50  51  52  53  
[Printable]
523
ASUS44 KMEG 222110
RWRTN
TENNESSEE HOURLY STATE WEATHER ROUNDUP
NATIONAL WEATHER SERVICE MEMPHIS TN
300 PM CST SAT NOV 22 2014

TNZ002-004-019-021-049-052-054-088>092-222200-
WEST TENNESSEE

CITY           SKY/WX    TMP DP  RH WIND       PRES   REMARKS
MEMPHIS INTL   PTSUNNY   65  40  39 S9        30.08F
NWS MEMPHIS      N/A     65 N/A N/A MISG        N/A
JACKSON        CLOUDY    64  37  36 S9G16     30.11F
DYERSBURG      PTSUNNY   64  36  34 S10       30.09F
UNION CITY     PTSUNNY   64  37  36 S15       30.07F
PARIS          MOSUNNY   64  36  34 S17       30.11F
HUNTINGDON     MOSUNNY   64  32  30 S15       30.10F
LEXINGTON      MOSUNNY   64  36  34 S10       30.12S
SAVANNAH       PTSUNNY   63  36  36 SE6       30.13F
$$

TNZ008-025-027-028-033-062-065-066-222200-
NORTH MIDDLE TENNESSEE

CITY           SKY/WX    TMP DP  RH WIND       PRES   REMARKS
NASHVILLE      MOSUNNY   64  32  30 S15G24    30.17F
CLARKSVILLE    LGT RAIN  65  34  31 S12       30.11F
SMYRNA         SUNNY     65  33  30 S12G18    30.17F
COOKEVILLE     MOSUNNY   63  34  34 S10       30.19F
CROSSVILLE     MOSUNNY   57  32  38 S9G17     30.23F
$$

TNZ061-075-076-078-094-096-097-222200-
SOUTH MIDDLE TENNESSEE

CITY           SKY/WX    TMP DP  RH WIND       PRES   REMARKS
FAYETTEVILLE   SUNNY     59  39  47 N16G30    30.19F
TULLAHOMA      SUNNY     61  37  41 S10       30.20F
WINCHESTER     SUNNY     61  39  44 SE13      30.21F
MCMINNVILLE    MOSUNNY   64  39  39 CALM      30.19F
COLUMBIA       MOSUNNY   64  36  34 S9        30.14F
SHELBYVILLE    SUNNY     64  45  48 S14       30.19F
$$

TNZ017-018-042-046-047-222200-
NORTHEAST TENNESSEE

CITY           SKY/WX    TMP DP  RH WIND       PRES   REMARKS
TRI CITIES     MOSUNNY   59  24  26 W3        30.27F
ELIZABETHTON   CLEAR     59  18  20 CALM      30.26F
$$

TNZ012-013-036-069-073-074-222200-
CENTRAL EAST TENNESSEE

CITY           SKY/WX    TMP DP  RH WIND       PRES   REMARKS
KNOXVILLE      PTSUNNY   58  30  34 E6        30.24F
OAK RIDGE      MOSUNNY   62  30  29 W5        30.25F
GATLINBURG     CLEAR     55  25  30 E3        30.26F
MORRISTOWN     CLEAR     55  27  33 CALM      30.27F
$$

TNZ083-085-099-222200-
SOUTHEAST TENNESSEE

CITY           SKY/WX    TMP DP  RH WIND       PRES   REMARKS
CHATTANOOGA    PTSUNNY   61  29  29 SE6       30.25F
$$

SKY/WX REPORTED AS FAIR MEANS FEW OR NO CLOUDS BELOW
12 THOUSAND FEET.





U.S. Dept. of Commerce
NOAA National Weather Service
1325 East West Highway
Silver Spring, MD 20910
E-mail: w-nws.webmaster@noaa.gov
Page last modified: May 16, 2007
NATIONAL WEATHER SERVICE: for Safety, for Work, for Fun - FOR LIFE